Kankakee, IL

1:54 AM CST on December 16, 2019 (GMT -0600)
Greater Kankakee

Weather History for KIKK - October, 2019

Change the Weather History Date:

Tuesday, October 29, 2019

  Actual Average Record
Temperature  
Mean Temperature 44 °F -  
Max Temperature 50 °F 60 °F 78 °F (2004)
Min Temperature 37 °F 37 °F 22 °F (1980)
Degree Days  
Heating Degree Days 22    
Moisture  
Dew Point 38 °F    
Average Humidity 92    
Maximum Humidity 99    
Minimum Humidity 79    
Precipitation  
Precipitation 0.04 in - - ()
Sea Level Pressure  
Sea Level Pressure 30.18 in    
Wind  
Wind Speed 9 mph (NNW)    
Max Wind Speed 16 mph    
Max Gust Speed 22 mph    
Visibility 9 miles    
Events Rain    
Averages and records for this station are not official NWS values.
T = Trace of Precipitation, MM = Missing Value Source: NWS Daily Summary

Daily Weather History Graph

Daily Weather History Graph

Search for Another Location

Airport or City:

Astronomy

Oct. 29, 2019 Rise Set
Actual Time 7:18 AM CDT 5:51 PM CDT
Civil Twilight 6:50 AM CDT 6:19 PM CDT
Nautical Twilight 6:17 AM CDT 6:51 PM CDT
Astronomical Twilight 5:45 AM CDT 7:23 PM CDT
Moon 8:52 AM CDT (10/29) 7:14 PM CDT (10/29)
Length of Visible Light 11h 29m
Length of Day
10h 32m
Waxing Crescent, 3% of the Moon is Illuminated
Oct 29
Waxing Crescent
Nov 4
First Quarter
Nov 12
Full
Nov 19
Last Quarter
Nov 26
New

Hourly Weather History & Observations

Time (CDT) Temp. Windchill Dew Point Humidity Pressure Visibility Wind Dir Wind Speed Gust Speed Precip Events Conditions
12:15 AM 46.6 °F - 45.5 °F 96% 29.99 in 10.0 mi SE 8.1 mph - N/A   Overcast
12:35 AM 46.6 °F - 46.0 °F 98% 29.99 in 10.0 mi SE 10.4 mph - N/A   Scattered Clouds
12:55 AM 47.7 °F - 46.9 °F 97% 29.97 in 10.0 mi SSE 12.7 mph 17.3 mph N/A   Scattered Clouds
1:15 AM 48.7 °F - 48.2 °F 98% 29.97 in 10.0 mi South 9.2 mph - N/A   Mostly Cloudy
1:35 AM 50.0 °F - 49.3 °F 97% 29.99 in 10.0 mi South 9.2 mph - N/A   Mostly Cloudy
1:55 AM 50.0 °F - 49.5 °F 98% 30.00 in 10.0 mi South 6.9 mph - N/A   Overcast
2:15 AM 50.0 °F - 49.5 °F 98% 30.02 in 10.0 mi West 8.1 mph - N/A   Overcast
2:35 AM 47.7 °F - 46.4 °F 95% 30.03 in 10.0 mi WNW 10.4 mph - N/A   Overcast
2:55 AM 47.5 °F - 46.4 °F 96% 30.03 in 10.0 mi NW 8.1 mph - N/A   Overcast
3:15 AM 45.5 °F 38.6 °F 43.5 °F 93% 30.03 in 10.0 mi NW 16.1 mph - N/A Rain Rain
3:35 AM 43.0 °F 36.0 °F 41.4 °F 94% 30.04 in 5.0 mi NNW 13.8 mph 21.9 mph N/A Rain Rain
3:55 AM 42.1 °F 37.1 °F 41.0 °F 96% 30.04 in 5.0 mi NW 8.1 mph - N/A   Light Drizzle
4:15 AM 40.8 °F 33.3 °F 40.3 °F 98% 30.04 in 4.0 mi NNW 13.8 mph - N/A   Light Drizzle
4:35 AM 39.7 °F 32.7 °F 39.2 °F 98% 30.05 in 5.0 mi NNW 11.5 mph 16.1 mph N/A   Overcast
4:55 AM 39.6 °F 32.5 °F 38.8 °F 97% 30.06 in 4.0 mi NNW 11.5 mph - N/A   Overcast
5:15 AM 39.2 °F 33.6 °F 38.7 °F 98% 30.06 in 3.0 mi NNW 8.1 mph - N/A   Drizzle
5:35 AM 39.6 °F 33.0 °F 39.0 °F 98% 30.08 in 4.0 mi NNW 10.4 mph - N/A   Light Drizzle
5:55 AM 39.2 °F 33.0 °F 38.7 °F 98% 30.09 in 4.0 mi NNW 9.2 mph - N/A   Drizzle
6:15 AM 38.7 °F 31.4 °F 38.1 °F 98% 30.09 in 7.0 mi North 11.5 mph - N/A   Overcast
6:35 AM 38.8 °F 32.6 °F 38.3 °F 98% 30.09 in 4.0 mi North 9.2 mph - N/A   Overcast
6:55 AM 38.3 °F 31.4 °F 37.8 °F 98% 30.10 in 5.0 mi North 10.4 mph - N/A   Overcast
7:35 AM 38.7 °F 33.6 °F 38.3 °F 99% 30.14 in 10.0 mi NNW 6.9 mph - N/A   Overcast
7:55 AM 38.8 °F 34.6 °F 38.3 °F 98% 30.14 in 4.0 mi North 5.8 mph - N/A   Overcast
8:15 AM 39.2 °F 33.6 °F 38.7 °F 98% 30.15 in 10.0 mi NNW 8.1 mph - N/A   Overcast
8:35 AM 39.2 °F 34.2 °F 38.7 °F 98% 30.16 in 5.0 mi NNW 6.9 mph - N/A   Overcast
8:55 AM 39.4 °F 33.2 °F 38.7 °F 97% 30.16 in 10.0 mi North 9.2 mph - N/A   Overcast
9:15 AM 39.4 °F 33.2 °F 38.8 °F 98% 30.18 in 10.0 mi NNW 9.2 mph - N/A   Overcast
9:35 AM 39.2 °F 33.0 °F 38.5 °F 97% 30.18 in 10.0 mi NNW 9.2 mph - N/A   Overcast
9:55 AM 39.0 °F 34.0 °F 38.3 °F 97% 30.19 in 10.0 mi NW 6.9 mph - N/A   Overcast
10:15 AM 38.5 °F 32.1 °F 37.9 °F 98% 30.20 in 7.0 mi NNW 9.2 mph - N/A   Overcast
10:35 AM 38.8 °F 32.6 °F 38.3 °F 98% 30.21 in 10.0 mi NNW 9.2 mph - N/A   Overcast
10:55 AM 39.0 °F 32.3 °F 38.3 °F 97% 30.22 in 10.0 mi NNW 10.4 mph - N/A   Overcast
11:15 AM 38.5 °F 31.6 °F 37.9 °F 98% 30.22 in 10.0 mi NNW 10.4 mph - N/A   Overcast
11:35 AM 38.3 °F 31.9 °F 37.6 °F 97% 30.23 in 10.0 mi NNW 9.2 mph - N/A   Overcast
11:55 AM 38.3 °F 30.9 °F 37.8 °F 98% 30.23 in 10.0 mi NNW 11.5 mph 18.4 mph N/A   Overcast
12:15 PM 38.3 °F 31.9 °F 37.6 °F 97% 30.23 in 7.0 mi NNW 9.2 mph - N/A   Overcast
12:35 PM 38.7 °F 32.4 °F 38.3 °F 99% 30.23 in 5.0 mi North 9.2 mph - N/A   Overcast
12:55 PM 38.5 °F 30.3 °F 37.8 °F 97% 30.23 in 5.0 mi NNW 13.8 mph 18.4 mph N/A   Overcast
1:15 PM 38.5 °F 32.1 °F 38.1 °F 99% 30.23 in 10.0 mi NNW 9.2 mph 18.4 mph N/A   Overcast
1:35 PM 39.0 °F 35.7 °F 38.3 °F 97% 30.23 in 10.0 mi NNW 4.6 mph 16.1 mph N/A   Overcast
1:55 PM 38.8 °F 33.2 °F 38.3 °F 98% 30.23 in 10.0 mi NNW 8.1 mph - N/A   Overcast
2:15 PM 39.4 °F 36.1 °F 38.7 °F 97% 30.24 in 10.0 mi North 4.6 mph - N/A   Overcast
2:35 PM 39.4 °F 34.5 °F 39.0 °F 99% 30.24 in 10.0 mi NW 6.9 mph - N/A   Overcast
2:55 PM 39.7 °F 35.6 °F 39.2 °F 98% 30.24 in 10.0 mi NW 5.8 mph - N/A   Overcast
3:15 PM 40.1 °F 36.1 °F 39.4 °F 97% 30.25 in 10.0 mi NNW 5.8 mph - N/A   Overcast
3:35 PM 40.6 °F 36.7 °F 38.5 °F 92% 30.25 in 10.0 mi North 5.8 mph - N/A   Overcast
3:55 PM 41.2 °F 39.2 °F 36.9 °F 85% 30.26 in 10.0 mi North 3.5 mph - N/A   Overcast
4:15 PM 41.5 °F 38.6 °F 36.3 °F 82% 30.25 in 10.0 mi North 4.6 mph - N/A   Overcast
4:35 PM 41.4 °F 36.8 °F 36.0 °F 81% 30.26 in 10.0 mi NNW 6.9 mph - N/A   Overcast
4:55 PM 40.5 °F 34.6 °F 36.1 °F 85% 30.27 in 10.0 mi NW 9.2 mph - N/A   Overcast
5:15 PM 39.7 °F 34.9 °F 35.1 °F 83% 30.27 in 10.0 mi NW 6.9 mph - N/A   Overcast
5:35 PM 39.6 °F 35.4 °F 34.9 °F 83% 30.28 in 10.0 mi NNW 5.8 mph - N/A   Overcast
5:55 PM 39.4 °F 33.8 °F 33.8 °F 80% 30.27 in 10.0 mi NNW 8.1 mph - N/A   Overcast
6:15 PM 39.2 °F 35.0 °F 34.0 °F 82% 30.28 in 10.0 mi NNW 5.8 mph - N/A   Overcast
6:35 PM 39.2 °F 33.6 °F 33.6 °F 80% 30.28 in 10.0 mi NNW 8.1 mph - N/A   Overcast
6:55 PM 38.8 °F 33.8 °F 33.6 °F 82% 30.30 in 10.0 mi NNW 6.9 mph - N/A   Overcast
7:35 PM 38.7 °F 34.3 °F 33.3 °F 81% 30.29 in 10.0 mi NNW 5.8 mph - N/A   Overcast
7:55 PM 38.5 °F 33.4 °F 33.1 °F 81% 30.30 in 10.0 mi North 6.9 mph - N/A   Overcast
8:15 PM 38.5 °F 34.1 °F 32.9 °F 80% 30.29 in 10.0 mi North 5.8 mph - N/A   Overcast
8:35 PM 38.7 °F 33.6 °F 32.9 °F 80% 30.30 in 10.0 mi NNW 6.9 mph - N/A   Overcast
8:55 PM 38.7 °F 32.9 °F 32.9 °F 80% 30.28 in 10.0 mi North 8.1 mph - N/A   Overcast
9:15 PM 38.8 °F 35.4 °F 32.9 °F 79% 30.29 in 10.0 mi NNE 4.6 mph - N/A   Overcast
9:35 PM 38.8 °F 35.4 °F 32.7 °F 79% 30.30 in 10.0 mi North 4.6 mph - N/A   Overcast
9:55 PM 39.2 °F 35.0 °F 33.1 °F 79% 30.29 in 10.0 mi North 5.8 mph - N/A   Overcast
10:15 PM 39.0 °F 34.0 °F 32.9 °F 79% 30.29 in 10.0 mi NNE 6.9 mph - N/A   Light Drizzle
10:35 PM 38.8 °F 32.6 °F 33.1 °F 80% 30.29 in 10.0 mi North 9.2 mph - N/A Rain Light Rain
10:55 PM 38.1 °F 32.3 °F 33.1 °F 82% 30.29 in 10.0 mi North 8.1 mph - N/A Rain Rain
11:15 PM 37.6 °F 33.1 °F 33.8 °F 86% 30.29 in 10.0 mi North 5.8 mph - 0.01 in Rain Light Rain
11:35 PM 37.8 °F 33.3 °F 34.0 °F 86% 30.29 in 10.0 mi NNE 5.8 mph - 0.02 in Rain Rain
11:55 PM 37.6 °F 33.1 °F 34.5 °F 89% 30.28 in 7.0 mi NNE 5.8 mph - 0.04 in Rain Rain